Location: Newark
(23.3970°S, 47.6010°W)
Time: 06:34:44
(UTC+00:00)

deb Explorer IX - Pass Details

Date: 19 February 2020
Orbit: 548 x 1100 km, 38.8° (Epoch: 07 April)

Event Time Altitude Azimuth Distance (km) Brightness Sun altitude
Rises 04:15:09 0° 254° (WSW) 3,892 - -53.0°
Reaches altitude 10° 04:18:31 10° 241° (WSW) 2,960 - -52.7°
Maximum altitude 04:24:17 24° 189° (S) 2,083 - -52.2°
Exits shadow 04:29:21 12° 140° (SE) 2,744 ? -51.7°
Drops below altitude 10° 04:29:57 10° 137° (SE) 2,890 ? -51.6°
Sets 04:33:11 0° 123° (ESE) 3,780 ? -51.3°
